Qianfan 05-07

operational
NORAD ID: 63165 Int'l Des: 2025-046 Owner: YUANX Country: CN Constellation: qianfan
LEOCIRCULARPOLAR

Qianfan 05-07について

説明を読み込み中...

リアルタイム位置

3D地球を読み込み中...

次回通過

高度履歴

Altitude vs Time

uPlot chart will show altitude changes over time

軌道要素

1 63165U 25046G 25303.90690139 .00000061 00000-0 76492-4 0 9997
2 63165 88.9772 324.5332 0012890 248.9814 110.9959 13.50973843 41598
Epoch: Oct 30, 2025 • Age: 9 hours

現在のステータス

高度 1088.2 km
速度 7.31 km/s
衛星直下点 -72.88°S, 173.02°W
打ち上げ日 Mar 11, 2025
運用期間 0.6 years
タイプ internet

技術仕様

分類 Payload
質量 267.00 kg
乾燥質量 267.00 kg
総質量 267.00 kg
長さ 0.30 m
直径 3.00 m
スパン 10.00 m
形状 Box+pan
製造者 GESIH
バスタイプ Qianfan
フェーズステータス In Orbit
所有者/国 YUANX/CN

大規模コンステレーション

Loading constellations...